This is the latest recevied weather packets stored in our database for station/object W4NDF-13. If no packets are shown the sender has not sent any weather packets the latest 10 day(s).
| Time | Temp. | Humidity | Pressure | Rain* | Wind** | Luminosity | Snow |
|---|---|---|---|---|---|---|---|
| 1777918058 | 24.44° C | 43% | 1018.1 hPa | 0 mm | - | 780 W/m² | - |
| 1777917756 | 25° C | 43% | 1018.2 hPa | 0 mm | - | 849 W/m² | - |
| 1777917453 | 24.44° C | 42% | 1018.4 hPa | 0 mm | - | 815 W/m² | - |
| 1777917150 | 23.89° C | 44% | 1018.3 hPa | 0 mm | - | 847 W/m² | - |
| 1777916848 | 24.44° C | 44% | 1018.4 hPa | 0 mm | - | 847 W/m² | - |
| 1777916546 | 23.89° C | 45% | 1018.5 hPa | 0 mm | - | 829 W/m² | - |
| 1777916241 | 24.44° C | 45% | 1018.6 hPa | 0 mm | - | 828 W/m² | - |
| 1777915939 | 24.44° C | 44% | 1018.3 hPa | 0 mm | - | 824 W/m² | - |
| 1777915635 | 25° C | 45% | 1018.3 hPa | 0 mm | - | 822 W/m² | - |
| 1777915332 | 24.44° C | 44% | 1018.2 hPa | 0 mm | - | 818 W/m² | - |
| 1777915028 | 25° C | 45% | 1018.2 hPa | 0 mm | - | 811 W/m² | - |
| 1777914726 | 25° C | 44% | 1018.5 hPa | 0 mm | - | 806 W/m² | - |
| 1777914422 | 25° C | 44% | 1018.3 hPa | 0 mm | - | 801 W/m² | - |
| 1777914120 | 24.44° C | 45% | 1018.2 hPa | 0 mm | - | 797 W/m² | - |
| 1777913815 | 23.89° C | 46% | 1018.2 hPa | 0 mm | - | 791 W/m² | - |
| 1777913512 | 23.89° C | 46% | 1018.2 hPa | 0 mm | - | 789 W/m² | - |
| 1777913209 | 24.44° C | 46% | 1018.5 hPa | 0 mm | - | 781 W/m² | - |
| 1777912904 | 24.44° C | 44% | 1018.5 hPa | 0 mm | - | 777 W/m² | - |
| 1777912602 | 24.44° C | 41% | 1018.6 hPa | 0 mm | - | 768 W/m² | - |
| 1777912298 | 23.89° C | 44% | 1018.7 hPa | 0 mm | - | 763 W/m² | - |
| 1777911994 | 23.89° C | 41% | 1018.8 hPa | 0 mm | - | 756 W/m² | - |
| 1777911690 | 24.44° C | 41% | 1018.9 hPa | 0 mm | - | 749 W/m² | - |
| 1777911386 | 23.89° C | 41% | 1018.8 hPa | 0 mm | - | 740 W/m² | - |
| 1777911084 | 23.89° C | 42% | 1018.9 hPa | 0 mm | - | 730 W/m² | - |
| 1777910782 | 23.89° C | 41% | 1019 hPa | 0 mm | - | 723 W/m² | - |
* Rain latest hour (hover to see other rain measurements)
** Current wind speed in m/s (hover to see current wind gust speed)